Terminal Aerodrome Forecast
Issued by NWS

Current Version | Previous Version | Graphics & Text | Print | Product List | Glossary On
Versions: 1 2 3 4 5 6 7 8 9 10 11 12 13 14 15 16 17 18 19 20 21 22 23 24 25 26 27 28 29 30 31 32 33 34 35 36 37 38 39 40 41 42 43 44 45 46 47 48 49 50
000
FTUS41 KRNK 042337
TAFLWB
TAF
KLWB 042337Z 0500/0524 30004KT P6SM SCT015 BKN060
     FM050300 00000KT 4SM BR SCT007
     FM050500 00000KT 1/4SM FG VV001
     FM051300 00000KT 4SM BR OVC015
     FM051700 16003KT 6SM -RA BR OVC025=

USA.gov is the U.S. government's official web portal to all federal, state and local government web resources and services.